Погода в Ёгле

Россия / Новгородская область     58°19′05″N   33°58′55″E
темп.,
°C
ветер,
м/с
пор.,
м/с
влажн.,
%
обл.,
%
осадки,
мм/ч
давл.,
гПа
погр.,
м
28 октября, чт
чт2800:00+6юз41284100 0.0 1008621
03:00+5ю41293100 3.8 1004866
06:00+8зюз41296100 1.0 1003638
09:00+8зсз51189100 1.6 1006816
12:00+7ссз5989100 0.3 1012745
15:00+6ссз3788100 0.3 1016618
18:00+6ссз1191100 0.1 101918
21:00+4ююз229367 0.1 102021
29 октября, пт
пт2900:00+4ю2790100 0.0 1021183
03:00+5ю41186100 0.2 1020372
06:00+6ююз51491100 2.4 1018663
09:00+8юз41396100 2.5 1017586
12:00+10зюз51187100 0.0 1018734
15:00+10зюз5128333 0.0 1018639
18:00+9зюз4148897 0.0 1019443
21:00+10зюз41488100 0.0 1019493
30 октября, сб
сб3000:00+9зюз4148898 0.0 1019523
03:00+9зюз41587100 0.0 1019502
06:00+8зюз515885 0.0 1019489
09:00+8зюз41388100 0.0 1020496
12:00+11зюз4127881 0.0 1021597
15:00+12юз4117718 0.0 1021617
18:00+9ююз3109114 0.0 1021293
21:00+9юз4118896 0.0 1021406
31 октября, вс
вс3100:00+8юз411845 0.0 1021442
03:00+7юз411875 0.0 1021376
06:00+6ююз3109232 0.0 1021339
09:00+6ююз399317 0.0 1021308
12:00+9ююз397425 0.0 1021457
15:00+10ююз4106853 0.0 1019501
18:00+8ю412775 0.0 1018405
21:00+7ююз4127914 0.0 1018478
1 ноября, пн
пн100:00+7ююз41278100 0.0 1018479
03:00+6юз4128184 0.0 1018446
06:00+6ююз3108577 0.0 1018342
09:00+5ююз3108736 0.0 1018310
12:00+9ююз387297 0.0 1018394
15:00+9ююз386875 0.0 1017415
18:00+6ю398292 0.0 1018197
21:00+5ю398626 0.0 1018209